Regional Weather Roundup
Issued by NWS Goodland, KS

Home | Current Version | Previous Version | Text Only | Print | Product List | Glossary Off
Versions: 1 2 3 4 5 6 7 8 9 10 11 12 13 14 15 16 17 18 19 20 21 22 23 24 25 26 27 28 29 30 31 32 33 34 35 36 37 38 39 40 41 42 43 44 45 46 47 48 49 50

000
ASUS43 KGLD 262359
RWRGLD

GOODLAND FORECAST AREA HOURLY WEATHER ROUNDUP
NATIONAL WEATHER SERVICE GOODLAND KS
600 PM MDT THU APR 26 2018

...OFFICIAL OBSERVATIONS...

CITY           SKY/WX    TMP DP  RH WIND       PRES   REMARKS
GOODLAND KS    MOSUNNY   60  27  28 N17G29    30.17S
HILL CITY KS     N/A    N/A N/A N/A MISG      30.12R
IMPERIAL NEB   SUNNY     62  24  23 N17G26    30.17S
MCCOOK NEB     SUNNY     63  28  26 N16G25    30.13S
AKRON CO       SUNNY     57  26  30 N14       30.22S
BURLINGTON CO  MOSUNNY   59  28  30 N17G28    30.20R
LIMON CO       SUNNY     55  23  28 N14G26    30.24S
$$

...UNOFFICIAL OBSERVATIONS...

CITY           SKY/WX    TMP DP  RH WIND       PRES   REMARKS
NORTON KS      SUNNY     64  28  25 N14       30.11
KIT CARSON CO    N/A     60  29  30 MISG        N/A
YUMA CO        FAIR      55  19  24 N13G20    30.20S
$$




USA.gov is the U.S. government's official web portal to all federal, state and local government web resources and services.